North Springfield, VT

1:55 AM EDT on October 01, 2016 (GMT -0400)
Hartness State

Weather History for KVSF - April, 2014

Change the Weather History Date:

Wednesday, April 30, 2014

  Actual Average Record
Temperature  
Mean Temperature 40 °F 50 °F  
Max Temperature 43 °F 63 °F 82 °F (2004)
Min Temperature 37 °F 38 °F 25 °F (2012)
Degree Days  
Heating Degree Days 25 15  
Month to date heating degree days 645 625  
Since 1 July heating degree days 7628 7106  
Cooling Degree Days 0 0  
Month to date cooling degree days 0 2  
Year to date cooling degree days 0 2  
Moisture  
Dew Point 37 °F    
Average Humidity 88    
Maximum Humidity 93    
Minimum Humidity 82    
Precipitation  
Precipitation 0.75 in 0.11 in 0.75 in (2014)
Month to date precipitation 3.70 3.62  
Year to date precipitation 9.41 12.53  
Sea Level Pressure  
Sea Level Pressure 30.36 in    
Wind  
Wind Speed 3 mph (SE)    
Max Wind Speed 12 mph    
Max Gust Speed 17 mph    
Visibility 6 miles    
Events Rain    
T = Trace of Precipitation, MM = Missing Value Source: NWS Daily Summary

Daily Weather History Graph

Daily Weather History Graph

Search for Another Location

Airport or City:

Trip Planner

Search our weather history database for the weather conditions in past years. The results will help you decide how hot, cold, wet, or windy it might be!

Date:

Astronomy

Apr. 30, 2014 Rise Set
Actual Time 5:44 AM EDT 7:50 PM EDT
Civil Twilight 5:13 AM EDT 8:21 PM EDT
Nautical Twilight 4:35 AM EDT 9:00 PM EDT
Astronomical Twilight 3:53 AM EDT 9:42 PM EDT
Moon 6:42 AM EDT (4/30) 9:28 PM EDT (4/30)
Length of Visible Light 15h 08m
Length of Day
14h 06m
New Moon, 2% of the Moon is Illuminated
Apr 30
New Moon
May 6
First Quarter
May 14
Full
May 21
Last Quarter
May 28
New

Hourly Weather History & Observations

Time (EDT) Temp. Windchill Dew Point Humidity Pressure Visibility Wind Dir Wind Speed Gust Speed Precip Events Conditions
12:54 AM 39.0 °F 36.8 °F 33.1 °F 79% 30.53 in 10.0 mi ESE 3.5 mph - 0.00 in   Overcast
1:12 AM 39.0 °F 34.8 °F 33.1 °F 79% 30.51 in 10.0 mi ESE 5.8 mph - N/A   Overcast
1:54 AM 37.9 °F 34.4 °F 34.0 °F 86% 30.52 in 10.0 mi ESE 4.6 mph - 0.01 in Rain Light Rain
2:54 AM 37.9 °F - 34.0 °F 86% 30.50 in 10.0 mi Calm Calm - 0.00 in Rain Light Rain
3:54 AM 37.9 °F - 35.1 °F 89% 30.52 in 10.0 mi Calm Calm - 0.02 in Rain Light Rain
4:54 AM 37.9 °F 35.5 °F 35.1 °F 89% 30.53 in 7.0 mi ESE 3.5 mph - 0.02 in Rain Light Rain
5:54 AM 37.9 °F 35.5 °F 35.1 °F 89% 30.52 in 7.0 mi Variable 3.5 mph - 0.03 in Rain Light Rain
6:29 AM 37.9 °F - 35.1 °F 89% 30.52 in 2.5 mi Calm Calm - 0.05 in Rain Rain
6:36 AM 37.9 °F - 36.0 °F 93% 30.52 in 4.0 mi Calm Calm - 0.06 in Rain Light Rain
6:54 AM 37.9 °F - 36.0 °F 93% 30.53 in 5.0 mi Calm Calm - 0.07 in Rain Light Rain
7:54 AM 37.9 °F - 36.0 °F 93% 30.52 in 10.0 mi Calm Calm - 0.03 in Rain Light Rain
8:54 AM 37.9 °F - 36.0 °F 93% 30.50 in 8.0 mi Calm Calm - 0.01 in Rain Light Rain
9:54 AM 39.0 °F - 37.0 °F 93% 30.48 in 10.0 mi Calm Calm - 0.01 in Rain Light Rain
11:54 AM 41.0 °F 37.1 °F 37.0 °F 86% 30.44 in 10.0 mi SSE 5.8 mph - 0.00 in   Overcast
12:54 PM 42.1 °F 37.7 °F 37.0 °F 82% 30.43 in 10.0 mi SE 6.9 mph - N/A   Overcast
1:24 PM 43.0 °F 38.2 °F 37.0 °F 80% 30.40 in 10.0 mi South 8.1 mph 16.1 mph 0.00 in Rain Light Rain
1:34 PM 43.0 °F 37.7 °F 37.0 °F 80% 30.40 in 10.0 mi South 9.2 mph - 0.00 in Rain Light Rain
1:54 PM 43.0 °F 37.2 °F 37.0 °F 80% 30.42 in 10.0 mi SE 10.4 mph - 0.00 in Rain Light Rain
2:15 PM 43.0 °F 36.8 °F 36.0 °F 76% 30.37 in 10.0 mi SSE 11.5 mph - 0.00 in   Overcast
2:36 PM 42.1 °F 37.7 °F 37.0 °F 82% 30.37 in 10.0 mi SSE 6.9 mph - 0.01 in Rain Light Rain
2:54 PM 42.1 °F 38.4 °F 37.9 °F 85% 30.39 in 10.0 mi Variable 5.8 mph - 0.01 in Rain Light Rain
3:54 PM 42.1 °F 38.4 °F 37.9 °F 85% 30.35 in 10.0 mi SSE 5.8 mph - 0.02 in Rain Light Rain
4:49 PM 42.8 °F 41.1 °F 39.2 °F 87% 30.32 in 5.0 mi ESE 3.5 mph - 0.04 in Rain Light Rain
4:54 PM 42.1 °F - 39.0 °F 89% 30.34 in 5.0 mi Calm Calm - 0.04 in Rain Light Rain
5:17 PM 41.0 °F 37.1 °F 37.9 °F 89% 30.31 in 5.0 mi ESE 5.8 mph - 0.02 in Rain Light Rain
5:54 PM 41.0 °F 38.0 °F 39.0 °F 93% 30.32 in 4.0 mi Variable 4.6 mph - 0.06 in Rain Light Rain
6:54 PM 41.0 °F - 37.9 °F 89% 30.30 in 4.0 mi Calm Calm - 0.07 in Rain Rain
7:54 PM 39.9 °F 36.7 °F 37.9 °F 93% 30.28 in 6.0 mi ESE 4.6 mph - 0.08 in Rain Light Rain
8:23 PM 39.9 °F - 39.0 °F 97% 30.26 in 4.0 mi Calm Calm - 0.04 in Rain Rain
8:31 PM 39.9 °F - 39.0 °F 97% 30.25 in 4.0 mi Calm Calm - 0.06 in Rain Rain
8:54 PM 39.9 °F 37.8 °F 37.9 °F 93% 30.26 in 8.0 mi SSE 3.5 mph - 0.10 in Rain Light Rain
9:22 PM 39.9 °F - 39.0 °F 97% 30.23 in 2.5 mi Calm Calm - 0.03 in Rain Rain
9:28 PM 39.0 °F 36.8 °F 39.0 °F 100% 30.23 in 4.0 mi South 3.5 mph - 0.04 in Rain Light Rain
9:54 PM 39.0 °F - 37.9 °F 96% 30.24 in 4.0 mi Calm Calm - 0.07 in Rain Light Rain
10:22 PM 39.0 °F - 37.9 °F 96% 30.21 in 3.0 mi Calm Calm - 0.01 in Rain Light Rain
10:30 PM 39.0 °F - 37.9 °F 96% 30.20 in 2.0 mi Calm Calm - 0.02 in Rain Light Rain
10:54 PM 39.0 °F - 37.9 °F 96% 30.22 in 3.0 mi Calm Calm - 0.03 in Rain Light Rain
11:01 PM 39.0 °F - 39.0 °F 100% 30.19 in 3.0 mi Calm Calm - 0.01 in Rain Light Rain
11:31 PM 39.0 °F - 37.9 °F 96% 30.18 in 1.8 mi Calm Calm - 0.03 in Rain Light Rain
11:40 PM 39.0 °F - 37.9 °F 96% 30.17 in 2.0 mi Calm Calm - 0.03 in Rain Light Rain
11:54 PM 39.0 °F - 37.9 °F 96% 30.18 in 3.0 mi Calm Calm - 0.04 in Rain Light Rain